Weather reports worldwide

Advertisment
Aeroport de Lannion, France (7118): temperature & dewpoint: 14.10.2020 16:00:00 - 20.10.2020 16:00:00 (CEST)Aeroport de Lannion, France (7118): wind speed & gusts: 14.10.2020 16:00:00 - 20.10.2020 16:00:00 (CEST)Aeroport de Lannion, France (7118): wind direction: 14.10.2020 16:00:00 - 20.10.2020 16:00:00 (CEST)Aeroport de Lannion, France (7118): reduced air pressure: 14.10.2020 16:00:00 - 20.10.2020 16:00:00 (CEST)Aeroport de Lannion, France (7118): visibility: 14.10.2020 16:00:00 - 20.10.2020 16:00:00 (CEST)Aeroport de Lannion, France (7118): precipitation: 14.10.2020 16:00:00 - 20.10.2020 16:00:00 (CEST)
Date & Time tt [°C] td [°C] ff [km/h] ff [kn] fx [km/h] fx [kn] dd ppp [hPa] vv [km] rr [mm]
20.10.2020 16:00:00 18,3 12,3 27 15 54 29 S 1001,6 26 0,0
20.10.2020 15:00:00 18,4 12,2 24 13 61 33 SSW 1001,7 20 0,0
20.10.2020 14:00:00 18,7 12,2 31 17 57 31 S 1002,2 20 0,0
20.10.2020 13:00:00 17,6 12,7 27 15 52 28 SSW 1002,5 19 0,0
20.10.2020 12:00:00 17,7 13,6 27 15 49 26 SSW 1002,5 19 0,0
20.10.2020 11:00:00 16,4 12,9 19 11 41 22 S 1002,3 20 0,0
20.10.2020 10:00:00 15,1 12,6 20 11 38 21 S 1002,3 20 0,0
20.10.2020 09:00:00 14,4 12,1 18 10 38 20 SSW 1002,1 46 0,0
20.10.2020 08:00:00 14,3 12,2 18 10 34 18 S 1002,0 45 0,0
20.10.2020 07:00:00 14,4 12,1 17 9 41 22 SSW 1001,6 56 0,0
20.10.2020 06:00:00 15,5 13,3 22 12 44 24 SSW 1001,8 59 0,0
20.10.2020 05:00:00 15,4 13,6 16 8 33 18 S 1001,2 15 0,0
20.10.2020 04:00:00 15,5 13,3 15 8 35 19 S 1001,9 41 0,0
20.10.2020 03:00:00 15,2 13,0 14 8 31 17 S 1001,9 41 0,0
20.10.2020 02:00:00 15,0 12,7 18 10 36 20 S 1002,5 39 0,0
20.10.2020 01:00:00 14,8 12,5 18 10 50 27 S 1003,1 39 0,0
20.10.2020 00:00:00 14,6 11,6 24 13 51 28 S 1003,9 45 0,2
19.10.2020 23:00:00 15,3 9,9 28 15 52 28 S 1003,8 47 0,0
19.10.2020 22:00:00 15,1 8,3 26 14 50 27 SSE 1004,1 58 0,0
19.10.2020 21:00:00 15,0 8,0 28 15 53 29 SSE 1004,5 58 0,0
19.10.2020 20:00:00 14,6 8,1 15 8 29 16 SSE 1005,4 16 0,0
19.10.2020 19:00:00 14,4 7,9 20 11 29 16 ESE 1005,4 60 0,0
19.10.2020 18:00:00 14,6 8,5 22 12 33 18 SE 1006,5 47 0,0
19.10.2020 17:00:00 15,0 8,2 23 13 41 22 SE 1007,8 42 0,0
19.10.2020 16:00:00 15,0 7,5 22 12 34 18 SE 1009,0 20 0,0
19.10.2020 15:00:00 14,8 7,8 22 12 41 22 SE 1010,5 39 0,0
19.10.2020 14:00:00 14,8 8,3 20 11 36 20 SE 1012,1 41 0,0
19.10.2020 13:00:00 13,6 8,4 22 12 36 19 SSE 1012,8 50 0,0
19.10.2020 12:00:00 11,6 8,6 19 11 29 16 SE 1013,9 20 0,0
19.10.2020 11:00:00 10,5 7,6 20 11 32 18 SE 1014,6 19 0,0
19.10.2020 10:00:00 8,5 6,6 16 8 25 14 SE 1015,7 15 0,0
19.10.2020 09:00:00 6,1 5,2 15 8 24 13 SE 1016,2 10 0,0
19.10.2020 08:00:00 6,9 5,8 15 8 21 11 SE 1016,9 13 0,0
19.10.2020 07:00:00 6,9 5,7 16 9 23 12 ESE 1017,5 13 0,0
19.10.2020 06:00:00 7,0 5,6 14 8 25 13 ESE 1018,3 13 0,0
19.10.2020 05:00:00 6,9 5,7 11 6 16 9 SE 1019,7 11 0,0
19.10.2020 04:00:00 6,6 5,4 11 6 15 8 ESE 1020,4 11 0,0
19.10.2020 03:00:00 7,1 6,0 9 5 13 7 E 1021,5 12 0,0
19.10.2020 02:00:00 6,5 5,8 10 5 12 6 SE 1021,8 9 0,0
19.10.2020 01:00:00 6,9 6,0 9 5 12 6 SE 1022,3 5 0,0
19.10.2020 00:00:00 7,4 6,2 7 4 10 5 SE 1023,1 10 0,0
18.10.2020 23:00:00 7,5 6,1 6 4 10 5 ESE 1023,2 9 0,0
18.10.2020 22:00:00 8,1 6,4 9 5 14 8 SE 1023,2 11 0,0
18.10.2020 21:00:00 9,0 6,6 8 5 17 9 E 1023,4 13 0,0
18.10.2020 20:00:00 10,5 7,0 8 4 16 9 E 1023,5 16 0,0
18.10.2020 19:00:00 11,9 7,0 5 3 13 7 E 1023,5 27 0,0
18.10.2020 18:00:00 13,0 6,6 9 5 17 9 SSE 1023,2 38 0,0
18.10.2020 17:00:00 13,9 6,7 10 6 21 11 SE 1023,7 18 0,0
18.10.2020 16:00:00 13,8 7,1 11 6 27 14 SE 1024,1 19 0,0
18.10.2020 15:00:00 13,9 6,0 12 6 26 14 SSE 1024,4 20 0,0
18.10.2020 14:00:00 13,7 6,8 15 8 25 14 SE 1024,7 20 0,0
18.10.2020 13:00:00 12,7 7,2 10 6 18 10 SE 1025,2 19 0,0
18.10.2020 12:00:00 10,7 6,6 10 5 18 10 SSE 1025,5 11 0,0
18.10.2020 11:00:00 8,4 6,4 8 5 16 9 SE 1025,6 15 0,0
18.10.2020 10:00:00 7,0 5,8 6 3 10 6 S 1025,6 13 0,0
18.10.2020 09:00:00 4,5 4,1 8 5 13 7 SE 1025,2 10 0,0
18.10.2020 08:00:00 4,1 3,7 9 5 13 7 S 1025,0 8 0,0
18.10.2020 07:00:00 4,2 3,9 5 3 8 4 SSE 1024,5 6 0,0
18.10.2020 06:00:00 4,5 4,1 5 3 10 5 SSE 1024,1 5 0,0
18.10.2020 05:00:00 4,6 4,0 8 5 10 5 SE 1023,9 5 0,0
18.10.2020 04:00:00 5,5 4,9 6 4 9 5 SSE 1024,3 6 0,0
18.10.2020 03:00:00 5,2 4,3 4 2 8 4 SSE 1024,2 4,5 0,0
18.10.2020 02:00:00 5,9 4,1 4 2 8 4 SE 1024,2 15 0,0
18.10.2020 01:00:00 7,0 5,0 6 4 8 5 ESE 1024,2 16 0,0
18.10.2020 00:00:00 7,3 4,9 6 3 9 5 SE 1023,9 15 0,0
17.10.2020 23:00:00 9,1 5,8 5 3 12 6 SE 1023,8 22 0,0
17.10.2020 22:00:00 9,4 5,6 6 4 10 5 ESE 1023,4 20 0,0
17.10.2020 21:00:00 9,0 5,2 6 3 14 8 SE 1023,4 23 0,0
17.10.2020 20:00:00 10,7 5,9 8 4 14 8 E 1022,5 28 0,0
17.10.2020 19:00:00 11,1 6,0 6 4 15 8 E 1021,9 30 0,0
17.10.2020 18:00:00 11,6 5,9 13 7 24 13 ESE 1021,6 39 0,0
17.10.2020 17:00:00 13,4 6,9 13 7 22 12 SE 1021,3 20 0,0
17.10.2020 16:00:00 12,8 5,7 14 8 24 13 SE 1021,4 43 0,0
17.10.2020 15:00:00 13,3 5,7 19 11 32 17 SE 1021,4 25 0,0
17.10.2020 14:00:00 13,8 6,4 19 10 30 16 SE 1021,6 29 0,0
17.10.2020 13:00:00 13,3 6,9 18 10 30 16 SE 1021,9 19 0,0
17.10.2020 12:00:00 12,1 8,2 13 7 18 10 SSE 1021,7 13 0,0
17.10.2020 11:00:00 9,9 7,5 8 4 14 8 SE 1021,8 4,8 0,0
17.10.2020 10:00:00 7,5 6,6 9 5 14 7 SE 1021,6 9 0,0
17.10.2020 09:00:00 4,5 4,1 9 5 13 7 ESE 1021,2 7 0,0
17.10.2020 08:00:00 5,2 4,5 11 6 17 9 SE 1021,2 12 0,0
17.10.2020 07:00:00 6,4 5,8 9 5 13 7 E 1021,4 17 0,0
17.10.2020 06:00:00 5,3 5,2 7 4 9 5 ESE 1021,6 8 0,0
17.10.2020 05:00:00 4,8 4,4 7 4 10 5 SSE 1021,5 6 0,0
17.10.2020 04:00:00 5,9 5,3 6 3 9 5 SE 1022,2 8 0,0
17.10.2020 03:00:00 7,0 5,9 8 4 11 6 SSE 1022,5 13 0,0
17.10.2020 02:00:00 7,5 6,8 7 4 13 7 SE 1022,5 12 0,0
17.10.2020 01:00:00 7,1 6,2 0 0 6 4 N 1022,8 16 0,0
17.10.2020 00:00:00 6,5 5,0 6 3 12 6 ESE 1023,3 19 0,0
16.10.2020 23:00:00 9,1 5,6 7 4 13 7 E 1023,3 44 0,0
16.10.2020 22:00:00 9,4 5,8 7 4 12 7 ENE 1023,5 60 0,0
16.10.2020 21:00:00 9,5 5,7 7 4 11 6 ENE 1023,7 60 0,0
16.10.2020 20:00:00 10,9 6,8 6 3 11 6 ENE 1023,6 60 0,0
16.10.2020 19:00:00 11,6 7,7 4 2 13 7 ENE 1023,4 11 0,0
16.10.2020 18:00:00 12,0 7,9 6 4 14 8 ENE 1023,5 19 0,0
16.10.2020 17:00:00 12,3 7,6 6 4 16 9 NE 1023,7 60 0,0
16.10.2020 16:00:00 12,9 7,1 8 4 16 9 NNE 1023,8 60 0,0
16.10.2020 15:00:00 13,9 7,9 4 2 11 6 S 1024,0 34 0,0
16.10.2020 14:00:00 12,7 8,6 6 3 12 6 S 1024,5 56 0,0
16.10.2020 13:00:00 11,8 8,8 5 3 13 7 S 1025,0 60 0,0
16.10.2020 12:00:00 11,1 9,0 8 4 15 8 S 1025,0 10 0,0
16.10.2020 11:00:00 10,1 9,5 10 5 16 8 SE 1025,1 20 0,0
16.10.2020 10:00:00 9,2 8,7 4 2 8 5 SE 1025,1 29 0,0
16.10.2020 09:00:00 8,5 8,4 6 3 10 6 SE 1025,0 8 0,0
16.10.2020 08:00:00 8,8 8,5 6 3 11 6 E 1024,9 19 0,0
16.10.2020 07:00:00 8,4 8,3 6 3 9 5 SE 1024,9 0,6 0,0
16.10.2020 06:00:00 8,7 8,6 2 1 6 3 SE 1024,9 1,3 0,0
16.10.2020 05:00:00 9,1 8,6 6 3 8 4 SSE 1024,9 8 0,2
16.10.2020 04:00:00 9,5 8,9 0 0 11 6 N 1025,5 8 0,8
16.10.2020 03:00:00 9,5 8,7 9 5 16 8 WSW 1025,6 4,5 1,2
16.10.2020 02:00:00 9,0 8,2 9 5 19 11 SSW 1025,6 43 0,0
16.10.2020 01:00:00 7,6 7,0 6 4 17 9 SSE 1025,6 9 0,0
16.10.2020 00:00:00 8,7 8,2 5 3 7 4 SW 1025,6 18 0,0
15.10.2020 23:00:00 9,0 8,1 5 3 9 5 WNW 1025,8 17 0,0
15.10.2020 22:00:00 9,9 8,7 6 3 22 12 ESE 1025,7 56 0,0
15.10.2020 21:00:00 11,0 8,2 9 5 28 15 ENE 1025,5 18 0,0
15.10.2020 20:00:00 10,9 8,1 7 4 28 15 NE 1025,1 60 0,0
15.10.2020 19:00:00 11,4 9,0 9 5 20 11 NE 1024,6 52 0,0
15.10.2020 18:00:00 11,5 9,6 8 5 16 9 ENE 1024,6 7 0,4
15.10.2020 17:00:00 11,5 9,2 6 3 25 14 NNE 1024,7 19 0,4
15.10.2020 16:00:00 12,6 9,1 16 9 30 16 NNE 1024,7 19 0,0
15.10.2020 15:00:00 11,5 9,1 14 8 26 14 NNE 1024,9 15 0,4
15.10.2020 14:00:00 11,8 9,4 9 5 34 18 ENE 1025,1 14 0,0
15.10.2020 13:00:00 12,7 8,4 17 9 - - NNE 1024,9 50 0,0
15.10.2020 12:00:00 11,7 8,7 - - - - - 1024,7 58 0,0
15.10.2020 11:00:00 12,1 7,6 20 11 33 18 N 1024,4 55 0,0
15.10.2020 10:00:00 11,6 6,7 16 8 36 19 N 1024,2 52 0,0
15.10.2020 09:00:00 10,8 7,1 8 4 25 13 NNE 1023,7 58 0,4
15.10.2020 08:00:00 9,7 7,0 4 2 14 8 NNE 1023,5 54 0,0
15.10.2020 07:00:00 10,1 8,0 7 4 16 8 NE 1023,4 50 0,0
15.10.2020 06:00:00 10,0 9,1 5 3 14 7 NW 1023,1 15 0,0
15.10.2020 05:00:00 9,7 8,3 7 4 31 17 NNW 1023,2 12 0,0
15.10.2020 04:00:00 10,6 8,5 6 3 13 7 NNE 1023,3 17 0,0
15.10.2020 03:00:00 10,3 8,4 4 2 14 8 NNE 1023,5 60 0,0
15.10.2020 02:00:00 10,4 8,3 6 3 11 6 NE 1023,4 19 0,0
15.10.2020 01:00:00 9,8 8,1 7 4 14 8 N 1023,0 59 0,0
15.10.2020 00:00:00 9,7 7,6 6 4 34 18 NE 1023,0 55 0,0
14.10.2020 23:00:00 11,6 8,3 14 7 31 17 NNE 1022,7 51 0,0
14.10.2020 22:00:00 10,8 6,2 5 3 18 10 NE 1022,3 60 0,0
14.10.2020 21:00:00 11,3 6,4 9 5 22 12 NE 1022,1 60 0,0
14.10.2020 20:00:00 11,8 5,4 13 7 32 18 NE 1021,5 19 0,0
14.10.2020 19:00:00 12,5 7,8 8 4 21 12 NE 1021,0 46 0,0
14.10.2020 18:00:00 12,6 7,5 11 6 38 21 NE 1020,6 49 0,0
14.10.2020 17:00:00 13,4 7,6 19 11 34 18 ENE 1020,1 20 0,0
14.10.2020 16:00:00 13,4 8,5 15 8 37 20 NE 1019,6 39 0,0

tt = temperature
td = dewpoint
ff = wind speed
fx = gusts
dd = wind direction
ppp = reduced air pressure
vv = visibility
rr = precipitation

Next stations